FW7829 Weather Reports


time (UTC)temp
C
wind
direction
speed
KPH
gust
KPH
rain 1hr
cm
rain 24hr
cm
rain mn
cm
humidity
%
barometer
mb
20260506002334 23 31 3.2 4.8 0.00 0.00 0.00 70 1004.0
20260506001830 23 244 3.2 3.2 0.00 0.00 0.00 70 1003.7
20260506001327 24 315 6.4 8.0 0.00 0.00 0.00 70 1003.5
20260506000824 25 338 6.4 9.7 0.00 0.00 0.00 70 1003.8
20260506000323 25 303 9.7 14.5 0.00 0.00 0.00 68 1003.7
20260505235818 25 26 9.7 14.5 0.00 0.00 0.00 67 1003.0
20260505235316 25 321 9.7 16.1 0.00 0.00 0.00 67 1003.0
20260505234813 26 341 8.0 11.3 0.00 0.00 0.00 66 1003.3
20260505234311 26 323 4.8 4.8 0.00 0.00 0.00 66 1003.1
20260505233807 26 276 8.0 12.9 0.00 0.00 0.00 66 1003.1
20260505233305 26 11 8.0 9.7 0.00 0.00 0.00 65 1003.0
20260505232802 27 317 4.8 8.0 0.00 0.00 0.00 64 1003.1
20260505232259 27 332 8.0 12.9 0.00 0.00 0.00 63 1003.1
20260505231755 27 17 9.7 12.9 0.00 0.00 0.00 62 1002.8
20260505231254 28 333 12.9 14.5 0.00 0.00 0.00 61 1002.8
20260505230752 28 5 1.6 3.2 0.00 0.00 0.00 57 1002.5
20260505230249 29 297 0.0 1.6 0.00 0.00 0.00 56 1002.5
20260505225745 29 311 8.0 9.7 0.00 0.00 0.00 54 1001.9
20260505225243 30 355 3.2 3.2 0.00 0.00 0.00 52 1002.3
20260505224737 30 14 3.2 4.8 0.00 0.00 0.00 52 1002.4
20260505224235 30 282 4.8 8.0 0.00 0.00 0.00 51 1002.4
20260505223733 31 310 4.8 4.8 0.00 0.00 0.00 50 1002.5
20260505223229 32 298 8.0 11.3 0.00 0.00 0.00 52 1001.9
20260505222725 32 287 3.2 4.8 0.00 0.00 0.00 53 1001.4
20260505222221 32 253 4.8 8.0 0.00 0.00 0.00 54 1001.4
20260505221719 32 241 6.4 8.0 0.00 0.00 0.00 53 1001.7
20260505221215 32 263 11.3 16.1 0.00 0.00 0.00 53 1001.6
20260505220712 32 258 1.6 3.2 0.00 0.00 0.00 54 1001.6
20260505220210 32 282 1.6 1.6 0.00 0.00 0.00 55 1001.6
20260505215708 32 291 0.0 0.0 0.00 0.00 0.00 56 1001.7
20260505215205 32 291 1.6 1.6 0.00 0.00 0.00 56 1001.7
20260505214703 32 261 1.6 1.6 0.00 0.00 0.00 56 1001.9
20260505214200 32 229 1.6 1.6 0.00 0.00 0.00 56 1001.8
20260505213657 32 271 0.0 1.6 0.00 0.00 0.00 56 1001.8
20260505213154 32 229 1.6 1.6 0.00 0.00 0.00 57 1001.9
20260505212650 31 271 0.0 1.6 0.00 0.00 0.00 57 1001.8
20260505212148 31 211 8.0 9.7 0.00 0.00 0.00 57 1002.0
20260505211645 32 244 4.8 9.7 0.00 0.00 0.00 57 1001.8
20260505211142 32 319 0.0 0.0 0.00 0.00 0.00 57 1002.2
20260505210638 31 280 6.4 11.3 0.00 0.00 0.00 58 1002.3
20260505210135 31 197 8.0 11.3 0.00 0.00 0.00 58 1002.2
20260505205633 32 263 8.0 9.7 0.00 0.00 0.00 57 1002.4
20260505205131 31 263 0.0 1.6 0.00 0.00 0.00 58 1002.3
20260505204627 31 323 6.4 12.9 0.00 0.00 0.00 57 1002.3
20260505204125 31 95 3.2 4.8 0.00 0.00 0.00 60 1002.5
20260505203621 31 225 3.2 3.2 0.00 0.00 0.00 61 1002.8
20260505203119 31 225 1.6 1.6 0.00 0.00 0.00 62 1002.8
20260505202614 32 300 1.6 1.6 0.00 0.00 0.00 61 1002.8
20260505202111 31 301 0.0 0.0 0.00 0.00 0.00 61 1002.6
20260505201607 31 215 1.6 1.6 0.00 0.00 0.00 62 1002.9
20260505201105 31 303 0.0 1.6 0.00 0.00 0.00 62 1002.5
20260505200603 31 228 6.4 8.0 0.00 0.00 0.00 61 1002.6
20260505200059 30 246 3.2 4.8 0.00 0.00 0.00 62 1002.6
20260505195555 31 200 11.3 16.1 0.00 0.00 0.00 62 1002.6
20260505195053 30 272 1.6 1.6 0.00 0.00 0.00 64 1002.6
20260505194550 30 250 3.2 4.8 0.00 0.00 0.00 65 1002.7
20260505194046 30 234 1.6 3.2 0.00 0.00 0.00 66 1002.9
20260505193543 30 295 4.8 9.7 0.00 0.00 0.00 66 1002.9
20260505193040 30 294 4.8 8.0 0.00 0.00 0.00 67 1002.8
20260505192539 30 314 1.6 1.6 0.00 0.00 0.00 66 1002.7
20260505192036 30 200 3.2 4.8 0.00 0.00 0.00 65 1002.9
20260505191534 30 208 3.2 8.0 0.00 0.00 0.00 66 1002.9
20260505191032 29 227 8.0 12.9 0.00 0.00 0.00 67 1002.9
20260505190526 30 159 1.6 1.6 0.00 0.00 0.00 66 1003.0
20260505190023 29 163 3.2 4.8 0.00 0.00 0.00 67 1002.9
20260505185519 29 255 1.6 3.2 0.00 0.00 0.00 69 1003.0
20260505185016 29 274 1.6 1.6 0.00 0.00 0.00 69 1003.2
20260505184513 28 292 3.2 4.8 0.00 0.00 0.00 68 1002.8
20260505184009 28 299 0.0 0.0 0.00 0.00 0.00 69 1003.1
20260505183506 28 269 1.6 1.6 0.00 0.00 0.00 69 1003.3
20260505183002 28 248 4.8 9.7 0.00 0.00 0.00 69 1002.9
20260505182454 28 240 4.8 4.8 0.00 0.00 0.00 68 1003.1
20260505181950 28 255 9.7 11.3 0.00 0.00 0.00 67 1003.0
20260505181447 28 238 1.6 1.6 0.00 0.00 0.00 69 1003.1
20260505180944 28 221 1.6 1.6 0.00 0.00 0.00 71 1003.3
20260505180440 28 245 3.2 4.8 0.00 0.00 0.00 71 1003.0
20260505175937 28 292 3.2 3.2 0.00 0.00 0.00 70 1003.3
20260505175433 28 292 1.6 3.2 0.00 0.00 0.00 71 1003.1
20260505174930 28 129 1.6 3.2 0.00 0.00 0.00 71 1002.8
20260505174428 27 223 3.2 3.2 0.00 0.00 0.00 71 1003.1
20260505173923 27 298 0.0 1.6 0.00 0.00 0.00 72 1003.2
20260505173420 27 173 1.6 3.2 0.00 0.00 0.00 72 1003.3
20260505172917 27 110 3.2 4.8 0.00 0.00 0.00 73 1003.2
20260505172415 27 216 8.0 14.5 0.00 0.00 0.00 74 1003.1
20260505171914 27 161 1.6 3.2 0.00 0.00 0.00 73 1003.2
20260505171412 27 293 4.8 4.8 0.00 0.00 0.00 74 1003.4
20260505170908 26 293 1.6 1.6 0.00 0.00 0.00 75 1003.3
20260505170405 27 268 1.6 3.2 0.00 0.00 0.00 74 1003.5
20260505165900 27 280 0.0 1.6 0.00 0.00 0.00 74 1003.2
20260505165356 27 219 1.6 3.2 0.00 0.00 0.00 73 1003.3
20260505164852 26 285 1.6 1.6 0.00 0.00 0.00 74 1003.5
20260505164349 26 329 1.6 3.2 0.00 0.00 0.00 75 1003.3
20260505163847 26 251 3.2 9.7 0.00 0.00 0.00 76 1003.2
20260505163346 26 180 1.6 3.2 0.00 0.00 0.00 76 1003.3
20260505162844 26 228 0.0 1.6 0.00 0.00 0.00 76 1003.0
20260505162340 25 357 3.2 3.2 0.00 0.00 0.00 76 1003.1
20260505161837 26 290 1.6 1.6 0.00 0.00 0.00 76 1003.3
20260505161334 26 174 3.2 4.8 0.00 0.00 0.00 75 1003.1
20260505160831 25 304 3.2 8.0 0.00 0.00 0.00 77 1003.1
20260505160329 25 211 6.4 12.9 0.00 0.00 0.00 76 1002.9
20260505153308 25 158 3.2 3.2 0.00 0.00 0.00 79 1002.6
20260505152805 25 161 1.6 1.6 0.00 0.00 0.00 79 1002.7
20260505152304 25 347 3.2 3.2 0.00 0.00 0.00 79 1002.7
20260505151755 24 197 3.2 4.8 0.00 0.00 0.00 80 1002.8
20260505151253 23 272 4.8 8.0 0.00 0.00 0.00 81 1002.7
20260505150750 24 8 3.2 4.8 0.00 0.00 0.00 81 1002.9
20260505150247 24 227 1.6 1.6 0.00 0.00 0.00 81 1003.0
20260505140217 23 181 1.6 3.2 0.00 0.00 0.00 84 1003.0
20260505130141 22 241 3.2 4.8 0.00 0.00 0.00 86 1002.8
20260505124631 22 187 3.2 3.2 0.00 0.00 0.00 86 1002.5
20260505124127 22 238 3.2 3.2 0.00 0.00 0.00 86 1002.3
20260505123623 22 265 0.0 1.6 0.00 0.00 0.00 86 1002.4
20260505123120 22 219 1.6 1.6 0.00 0.00 0.00 86 1002.4
20260505122617 22 165 3.2 4.8 0.00 0.00 0.00 86 1002.0
20260505122114 22 215 3.2 4.8 0.00 0.00 0.00 86 1001.9
20260505121610 22 237 0.0 1.6 0.00 0.00 0.00 86 1001.8
20260505121107 22 252 1.6 1.6 0.00 0.00 0.00 86 1002.3
20260505120604 22 153 6.4 8.0 0.00 0.00 0.00 86 1001.8
20260505120100 22 262 4.8 8.0 0.00 0.00 0.00 86 1002.2
20260505115554 22 27 4.8 8.0 0.00 0.00 0.00 86 1001.9
20260505115052 22 270 3.2 4.8 0.00 0.00 0.00 86 1001.9
20260505114549 22 341 3.2 3.2 0.00 0.00 0.00 86 1002.0
20260505114045 22 238 1.6 1.6 0.00 0.00 0.00 86 1001.9
20260505113541 22 191 1.6 3.2 0.00 0.00 0.00 85 1001.9
20260505113038 22 96 3.2 4.8 0.00 0.00 0.00 85 1001.5
20260505112534 22 149 4.8 8.0 0.00 0.00 0.00 85 1001.9
20260505112033 22 238 1.6 1.6 0.00 0.00 0.00 85 1001.8
20260505111526 22 249 3.2 4.8 0.00 0.00 0.00 86 1001.6
20260505111023 22 215 1.6 3.2 0.00 0.00 0.00 86 1001.6
20260505110519 21 195 3.2 8.0 0.00 0.00 0.00 86 1001.9
20260505101951 22 229 1.6 3.2 0.00 0.00 0.00 86 1001.7
20260505101449 22 253 1.6 1.6 0.00 0.00 0.00 86 1001.6
20260505100946 22 176 1.6 1.6 0.00 0.00 0.00 86 1001.8
20260505100443 22 184 3.2 8.0 0.00 0.00 0.00 86 1001.7
20260505095939 22 141 4.8 8.0 0.00 0.00 0.00 86 1001.8
20260505095436 22 200 4.8 8.0 0.00 0.00 0.00 86 1001.8
20260505094932 22 270 0.0 1.6 0.00 0.00 0.00 86 1002.2
20260505094429 22 241 3.2 3.2 0.00 0.00 0.00 86 1002.2
20260505093925 21 209 3.2 3.2 0.00 0.00 0.00 86 1002.2
20260505093422 21 166 1.6 1.6 0.00 0.00 0.00 86 1002.2
20260505092919 21 205 3.2 3.2 0.00 0.00 0.00 86 1002.0
20260505092417 21 221 1.6 1.6 0.00 0.00 0.00 86 1002.3
20260505091914 21 313 1.6 3.2 0.00 0.00 0.00 86 1002.4
20260505091412 21 225 1.6 3.2 0.00 0.00 0.00 86 1002.3
20260505090910 21 188 1.6 3.2 0.00 0.00 0.00 86 1002.5
20260505090408 21 180 1.6 1.6 0.00 0.00 0.00 86 1002.4
20260505085905 21 217 1.6 1.6 0.00 0.00 0.00 87 1002.5
20260505085403 21 279 1.6 3.2 0.00 0.00 0.00 86 1002.4
20260505084901 21 267 1.6 1.6 0.00 0.00 0.00 86 1002.4
20260505084359 21 161 6.4 9.7 0.00 0.00 0.00 86 1002.3
20260505083856 21 205 4.8 11.3 0.00 0.00 0.00 86 1002.4
20260505083354 21 224 3.2 3.2 0.00 0.00 0.00 86 1002.3
20260505082849 21 214 1.6 1.6 0.00 0.00 0.00 86 1002.5
20260505082346 21 265 1.6 3.2 0.00 0.00 0.00 86 1002.4
20260505081842 21 278 1.6 1.6 0.00 0.00 0.00 85 1002.4
20260505081339 21 163 3.2 4.8 0.00 0.00 0.00 85 1002.2
20260505080836 22 107 1.6 3.2 0.00 0.00 0.00 85 1002.4
20260505080332 22 136 1.6 1.6 0.00 0.00 0.00 84 1002.7
20260505075827 22 167 0.0 1.6 0.00 0.00 0.00 84 1002.5
20260505075325 22 182 1.6 3.2 0.00 0.00 0.00 84 1002.6
20260505074822 22 120 1.6 1.6 0.00 0.00 0.00 84 1002.6
20260505074319 22 197 1.6 3.2 0.00 0.00 0.00 84 1002.9
20260505073816 22 302 1.6 1.6 0.00 0.00 0.00 83 1002.8
20260505073314 22 156 1.6 3.2 0.00 0.00 0.00 83 1002.8
20260505072811 22 199 1.6 3.2 0.00 0.00 0.00 83 1002.7
20260505072307 22 260 0.0 1.6 0.00 0.00 0.00 82 1003.1
20260505071803 22 199 1.6 1.6 0.00 0.00 0.00 82 1003.1
20260505071300 22 271 1.6 1.6 0.00 0.00 0.00 82 1003.1
20260505070758 22 247 1.6 3.2 0.00 0.00 0.00 82 1003.1
20260505070254 22 178 3.2 3.2 0.00 0.00 0.00 81 1003.4
20260505065749 22 264 1.6 3.2 0.00 0.00 0.00 81 1003.5
20260505065246 22 221 3.2 4.8 0.00 0.00 0.00 81 1003.5
20260505064743 22 255 0.0 1.6 0.00 0.00 0.00 80 1003.5
20260505064241 22 122 4.8 8.0 0.00 0.00 0.00 80 1003.4
20260505063738 22 161 1.6 1.6 0.00 0.00 0.00 80 1003.5
20260505063234 22 192 3.2 3.2 0.00 0.00 0.00 80 1003.7
20260505062730 22 205 1.6 3.2 0.00 0.00 0.00 80 1003.7
20260505062228 22 242 3.2 11.3 0.00 0.00 0.00 80 1003.6
20260505061725 22 161 1.6 1.6 0.00 0.00 0.00 80 1003.9
20260505061223 22 228 1.6 3.2 0.00 0.00 0.00 80 1003.6
20260505060720 22 176 1.6 1.6 0.00 0.00 0.00 80 1003.8
20260505060217 22 124 1.6 3.2 0.00 0.00 0.00 79 1003.7
20260505055712 22 221 3.2 3.2 0.00 0.00 0.00 79 1003.5
20260505055209 22 237 1.6 1.6 0.00 0.00 0.00 79 1003.8
20260505054707 22 247 1.6 3.2 0.00 0.00 0.00 79 1003.9
20260505054204 22 188 3.2 3.2 0.00 0.00 0.00 78 1003.8
20260505053702 22 294 1.6 3.2 0.00 0.00 0.00 78 1003.7
20260505053158 22 196 0.0 1.6 0.00 0.00 0.00 78 1003.9
20260505052655 22 184 3.2 3.2 0.00 0.00 0.00 78 1004.0
20260505052153 22 257 0.0 0.0 0.00 0.00 0.00 78 1004.0
20260505051650 22 257 1.6 1.6 0.00 0.00 0.00 77 1004.0
20260505051148 22 245 1.6 3.2 0.00 0.00 0.00 77 1004.0
20260505050645 22 45 3.2 3.2 0.00 0.00 0.00 77 1004.2
20260505050143 22 202 3.2 3.2 0.00 0.00 0.00 76 1003.9
20260505041613 23 137 8.0 12.9 0.00 0.00 0.00 75 1004.3
20260505041110 23 178 3.2 4.8 0.00 0.00 0.00 74 1004.2
20260505040607 23 76 1.6 3.2 0.00 0.00 0.00 74 1004.4
20260505040104 23 218 3.2 3.2 0.00 0.00 0.00 74 1004.2
20260505035601 23 293 1.6 1.6 0.00 0.00 0.00 74 1004.3
20260505035057 23 150 1.6 3.2 0.00 0.00 0.00 74 1004.3
20260505034554 23 248 1.6 1.6 0.00 0.00 0.00 74 1004.3
20260505034050 23 189 1.6 3.2 0.00 0.00 0.00 73 1004.1
20260505033547 23 265 1.6 3.2 0.00 0.00 0.00 73 1004.2
20260505033046 23 197 1.6 1.6 0.00 0.00 0.00 73 1004.1
20260505032543 23 299 4.8 4.8 0.00 0.00 0.00 73 1004.4
20260505032039 23 168 3.2 3.2 0.00 0.00 0.00 73 1004.4
20260505031537 23 176 1.6 3.2 0.00 0.00 0.00 73 1004.3
20260505031033 23 23 1.6 1.6 0.00 0.00 0.00 72 1004.4
20260505030530 23 295 0.0 1.6 0.00 0.00 0.00 72 1004.5
20260505030026 23 168 1.6 1.6 0.00 0.00 0.00 72 1004.1
20260505025522 23 212 4.8 4.8 0.00 0.00 0.00 72 1004.4
20260505025022 23 226 0.0 1.6 0.00 0.00 0.00 72 1004.6
20260505024518 23 182 1.6 1.6 0.00 0.00 0.00 72 1004.5
20260505024015 23 176 1.6 1.6 0.00 0.00 0.00 72 1004.3
20260505023512 23 258 3.2 3.2 0.00 0.00 0.00 72 1004.5
20260505023009 23 189 0.0 1.6 0.00 0.00 0.00 72 1004.5
20260505022507 23 289 0.0 0.0 0.00 0.00 0.00 72 1004.3
20260505022004 23 242 0.0 1.6 0.00 0.00 0.00 71 1004.2
20260505021500 23 185 3.2 3.2 0.00 0.00 0.00 71 1004.2
20260505020956 23 278 1.6 1.6 0.00 0.00 0.00 71 1004.2
20260505020451 24 195 3.2 3.2 0.00 0.00 0.00 71 1004.1
20260505015948 24 251 4.8 4.8 0.00 0.00 0.00 70 1004.1
20260505015446 24 128 1.6 3.2 0.00 0.00 0.00 70 1004.3
20260505014943 24 282 1.6 1.6 0.00 0.00 0.00 70 1004.2
20260505014440 24 301 3.2 3.2 0.00 0.00 0.00 69 1004.1
20260505013937 24 197 1.6 1.6 0.00 0.00 0.00 69 1004.3
20260505013434 25 218 0.0 0.0 0.00 0.00 0.00 68 1004.3
20260505012931 25 197 1.6 3.2 0.00 0.00 0.00 68 1004.2
20260505012429 25 250 3.2 4.8 0.00 0.00 0.00 68 1004.4
20260505011926 25 191 1.6 1.6 0.00 0.00 0.00 68 1004.2
20260505011422 25 272 3.2 4.8 0.00 0.00 0.00 68 1004.1
20260505010919 25 96 1.6 1.6 0.00 0.00 0.00 68 1004.1
20260505010414 25 228 1.6 1.6 0.00 0.00 0.00 67 1004.2
20260505005910 25 193 1.6 3.2 0.00 0.00 0.00 67 1004.0
20260505005408 25 118 1.6 3.2 0.00 0.00 0.00 67 1004.0
20260505004905 25 224 3.2 3.2 0.00 0.00 0.00 66 1004.1
20260505004401 25 138 3.2 3.2 0.00 0.00 0.00 66 1004.0
20260505003858 25 221 1.6 3.2 0.00 0.00 0.00 66 1003.9
20260505003356 25 130 3.2 3.2 0.00 0.00 0.00 65 1004.0
20260505002852 25 231 3.2 3.2 0.00 0.00 0.00 65 1004.0